Location: Unspecified
(0.0000°N, 0.0000°E)
Time: 00:07:48
(UTC+00:00)

N. Korean satellite - Pass Details

Date: 14 February 2020
Orbit: 456 x 505 km, 97.2° (Epoch: 26 February)

Event Time Altitude Azimuth Distance (km) Brightness Sun altitude
Rises 05:10:52 0° 18° (NNE) 2,587 10.3 -15.4°
Reaches altitude 10° 05:12:58 10° 22° (NNE) 1,704 9.4 -14.9°
Maximum altitude 05:16:35 55° 101° (E) 604 7.4 -14.0°
Drops below altitude 10° 05:20:10 10° 179° (S) 1,697 9.5 -13.1°
Sets 05:22:15 0° 184° (S) 2,575 10.4 -12.6°
